UAE4AQ OMDB-FAOR

Flight info

Callsign UAE4AQ
Flight time 7h 48m
Altitude 32000
Route ANVIX R401 GIDIS G783 UKRAG/N0506F310 L710 KUKDI/N0504F320 B400 VEDET UL437 ELAVA/N0503F340 DCT BONAP UM310 VBR UM307 EPSEK UZ33 NESAG UZ7 OKPIT OKPIT1C
Aircraft B77W/H-SDE1E2E3FGHIJ2J3J4J5M1RWXY/LB1D1

Departure

Time 2026-04-23 10:36
Airport Dubai International Airport (OMDB)

Arrival

Time 2026-04-23 18:24
Airport O.R. Tambo International Airport (FAOR)
Time Latitude Longitude Altitude Speed Heading
2026-04-23 09:47 25.24737 55.36564 33 ft 0 kts 211°
2026-04-23 10:17 25.24747 55.36571 32 ft 2 kts 211°
2026-04-23 10:17 25.24760 55.36579 33 ft 2 kts 211°
2026-04-23 10:17 25.24773 55.36588 36 ft 2 kts 211°
2026-04-23 10:18 25.24786 55.36597 38 ft 2 kts 218°
2026-04-23 10:18 25.24795 55.36608 40 ft 2 kts 241°
2026-04-23 10:18 25.24800 55.36623 43 ft 2 kts 259°
2026-04-23 10:18 25.24801 55.36640 44 ft 2 kts 277°
2026-04-23 10:19 25.24797 55.36655 46 ft 1 kts 296°
2026-04-23 10:19 25.24795 55.36659 46 ft 0 kts 300°
2026-04-23 10:22 25.24797 55.36655 46 ft 0 kts 300°
2026-04-23 10:23 25.24806 55.36636 45 ft 5 kts 299°
2026-04-23 10:23 25.24836 55.36579 41 ft 11 kts 301°
2026-04-23 10:23 25.24886 55.36487 36 ft 16 kts 302°
2026-04-23 10:23 25.24951 55.36372 32 ft 18 kts 301°
2026-04-23 10:24 25.25013 55.36259 33 ft 15 kts 300°
2026-04-23 10:24 25.25062 55.36170 37 ft 11 kts 302°
2026-04-23 10:24 25.25111 55.36081 34 ft 16 kts 302°
2026-04-23 10:24 25.25177 55.35963 33 ft 19 kts 300°
2026-04-23 10:25 25.25244 55.35839 36 ft 18 kts 301°
2026-04-23 10:25 25.25317 55.35709 34 ft 19 kts 301°
2026-04-23 10:25 25.25388 55.35580 32 ft 19 kts 301°
2026-04-23 10:25 25.25458 55.35455 32 ft 19 kts 301°
2026-04-23 10:26 25.25526 55.35332 33 ft 18 kts 301°
2026-04-23 10:26 25.25587 55.35222 34 ft 15 kts 301°
2026-04-23 10:26 25.25652 55.35156 35 ft 11 kts 359°
2026-04-23 10:26 25.25716 55.35186 35 ft 9 kts 31°
2026-04-23 10:27 25.25766 55.35221 36 ft 7 kts 33°
2026-04-23 10:27 25.25815 55.35254 35 ft 9 kts 30°
2026-04-23 10:27 25.25878 55.35294 35 ft 11 kts 31°
2026-04-23 10:27 25.25956 55.35353 35 ft 15 kts 45°
2026-04-23 10:28 25.25995 55.35484 38 ft 20 kts 97°
2026-04-23 10:28 25.25923 55.35648 38 ft 27 kts 122°
2026-04-23 10:28 25.25818 55.35838 41 ft 28 kts 120°
2026-04-23 10:28 25.25720 55.36017 42 ft 25 kts 121°
2026-04-23 10:29 25.25630 55.36177 45 ft 23 kts 120°
2026-04-23 10:29 25.25545 55.36330 45 ft 23 kts 120°
2026-04-23 10:29 25.25463 55.36479 45 ft 22 kts 122°
2026-04-23 10:29 25.25386 55.36618 47 ft 21 kts 121°
2026-04-23 10:30 25.25308 55.36758 48 ft 22 kts 121°
2026-04-23 10:30 25.25224 55.36910 50 ft 24 kts 121°
2026-04-23 10:30 25.25132 55.37076 51 ft 26 kts 121°
2026-04-23 10:30 25.25031 55.37258 51 ft 29 kts 121°
2026-04-23 10:31 25.24925 55.37451 53 ft 28 kts 120°
2026-04-23 10:31 25.24827 55.37626 54 ft 25 kts 121°
2026-04-23 10:31 25.24748 55.37770 54 ft 17 kts 121°
2026-04-23 10:31 25.24710 55.37843 55 ft 4 kts 110°
2026-04-23 10:32 25.24698 55.37867 55 ft 3 kts 122°
2026-04-23 10:32 25.24682 55.37896 56 ft 6 kts 115°
2026-04-23 10:32 25.24683 55.37947 57 ft 4 kts 50°
2026-04-23 10:32 25.24684 55.37949 57 ft 0 kts 50°
2026-04-23 10:34 25.24693 55.37959 57 ft 3 kts 49°
2026-04-23 10:34 25.24726 55.37990 57 ft 9 kts 34°
2026-04-23 10:34 25.24788 55.38031 58 ft 7 kts
2026-04-23 10:34 25.24825 55.37996 57 ft 10 kts 302°
2026-04-23 10:35 25.24927 55.37817 54 ft 57 kts 301°
2026-04-23 10:35 25.25260 55.37212 51 ft 126 kts 301°
2026-04-23 10:35 25.25828 55.36186 55 ft 184 kts 302°
2026-04-23 10:35 25.26517 55.34929 597 ft 195 kts 302°
2026-04-23 10:36 25.27207 55.33677 1486 ft 189 kts 302°
2026-04-23 10:36 25.27903 55.32420 1883 ft 197 kts 303°
2026-04-23 10:36 25.28628 55.31118 2372 ft 198 kts 300°
2026-04-23 10:36 25.29074 55.29686 2838 ft 199 kts 277°
2026-04-23 10:37 25.28993 55.28167 3262 ft 203 kts 255°
2026-04-23 10:37 25.28445 55.26752 3763 ft 204 kts 245°
2026-04-23 10:37 25.27817 55.25354 4353 ft 204 kts 246°
2026-04-23 10:37 25.27209 55.23943 4938 ft 203 kts 246°
2026-04-23 10:38 25.26616 55.22544 5487 ft 203 kts 246°
2026-04-23 10:38 25.26015 55.21127 6010 ft 204 kts 246°
2026-04-23 10:38 25.25390 55.19656 6274 ft 222 kts 245°
2026-04-23 10:38 25.24553 55.18139 6609 ft 236 kts 226°
2026-04-23 10:39 25.23220 55.17091 7186 ft 242 kts 203°
2026-04-23 10:39 25.21547 55.16707 7598 ft 255 kts 180°
2026-04-23 10:39 25.19768 55.16964 8201 ft 262 kts 162°
2026-04-23 10:39 25.18161 55.17991 8600 ft 278 kts 137°
2026-04-23 10:40 25.17028 55.19787 9034 ft 294 kts 118°
2026-04-23 10:40 25.16147 55.21825 9730 ft 296 kts 118°
2026-04-23 10:40 25.15229 55.23865 10428 ft 299 kts 120°
2026-04-23 10:40 25.14265 55.25912 11119 ft 302 kts 121°
2026-04-23 10:41 25.13283 55.27962 11789 ft 305 kts 121°
2026-04-23 10:41 25.12295 55.30017 12476 ft 308 kts 121°
2026-04-23 10:41 25.11281 55.32124 13201 ft 310 kts 121°
2026-04-23 10:41 25.10294 55.34206 13770 ft 315 kts 118°
2026-04-23 10:42 25.09379 55.36441 14302 ft 323 kts 116°
2026-04-23 10:42 25.08459 55.38744 14892 ft 327 kts 117°
2026-04-23 10:42 25.07505 55.41089 15477 ft 333 kts 117°
2026-04-23 10:42 25.06563 55.43439 15888 ft 344 kts 116°
2026-04-23 10:43 25.05613 55.45928 16135 ft 362 kts 115°
2026-04-23 10:43 25.04618 55.48529 16336 ft 379 kts 115°
2026-04-23 10:43 25.03562 55.51276 16601 ft 396 kts 115°
2026-04-23 10:43 25.02461 55.54130 16869 ft 412 kts 115°
2026-04-23 10:44 25.01130 55.56967 17070 ft 427 kts 122°
2026-04-23 10:44 24.99598 55.59821 17334 ft 442 kts 123°
2026-04-23 10:44 24.98006 55.62764 17812 ft 451 kts 123°
2026-04-23 10:44 24.96410 55.65715 18531 ft 452 kts 123°
2026-04-23 10:45 24.94793 55.68703 19320 ft 453 kts 123°
2026-04-23 10:45 24.93061 55.71557 19921 ft 455 kts 128°
2026-04-23 10:45 24.91186 55.74393 20450 ft 461 kts 129°
2026-04-23 10:45 24.89284 55.77256 21103 ft 464 kts 129°
2026-04-23 10:46 24.87371 55.80135 21749 ft 467 kts 129°
2026-04-23 10:46 24.85463 55.83004 22317 ft 471 kts 128°
2026-04-23 10:46 24.83502 55.85943 22867 ft 475 kts 130°
2026-04-23 10:46 24.81300 55.88641 23385 ft 476 kts 140°
2026-04-23 10:47 24.78726 55.90935 23868 ft 477 kts 149°
2026-04-23 10:47 24.75860 55.92750 24346 ft 478 kts 158°
2026-04-23 10:47 24.72766 55.94051 24795 ft 479 kts 167°
2026-04-23 10:47 24.69478 55.94807 25240 ft 479 kts 176°
2026-04-23 10:48 24.66152 55.94976 25705 ft 479 kts 186°
2026-04-23 10:48 24.62857 55.94579 26154 ft 478 kts 195°
2026-04-23 10:48 24.59627 55.93617 26588 ft 478 kts 204°
2026-04-23 10:48 24.56605 55.92133 27037 ft 477 kts 213°
2026-04-23 10:49 24.53828 55.90157 27471 ft 477 kts 221°
2026-04-23 10:49 24.51361 55.87733 27903 ft 476 kts 230°
2026-04-23 10:49 24.49167 55.85011 28385 ft 477 kts 232°
2026-04-23 10:49 24.46942 55.82309 28980 ft 478 kts 231°
2026-04-23 10:50 24.44646 55.79680 29557 ft 479 kts 230°
2026-04-23 10:50 24.42304 55.77122 30119 ft 481 kts 229°
2026-04-23 10:50 24.39892 55.74580 30742 ft 480 kts 228°
2026-04-23 10:50 24.37439 55.72061 31437 ft 477 kts 227°
2026-04-23 10:51 24.34969 55.69571 32110 ft 475 kts 227°
2026-04-23 10:51 24.32527 55.67143 32719 ft 472 kts 227°
2026-04-23 10:51 24.30077 55.64730 33262 ft 471 kts 227°
2026-04-23 10:51 24.27513 55.62485 33704 ft 476 kts 220°
2026-04-23 10:52 24.24626 55.60614 33856 ft 483 kts 212°
2026-04-23 10:52 24.21513 55.59216 33864 ft 489 kts 204°
2026-04-23 10:52 24.14944 55.57238 33865 ft 490 kts 201°
2026-04-23 10:53 24.08360 55.55311 33858 ft 489 kts 201°
2026-04-23 10:53 24.01783 55.53369 33857 ft 490 kts 201°
2026-04-23 10:54 23.95197 55.51421 33858 ft 491 kts 201°
2026-04-23 10:54 23.88606 55.49471 33852 ft 489 kts 201°
2026-04-23 10:55 23.82015 55.47517 33846 ft 494 kts 201°
2026-04-23 10:55 23.75397 55.45555 33842 ft 491 kts 201°
2026-04-23 10:56 23.68784 55.43595 33830 ft 491 kts 201°
2026-04-23 10:56 23.62173 55.41636 33833 ft 493 kts 201°
2026-04-23 10:57 23.55544 55.39767 33820 ft 495 kts 196°
2026-04-23 10:57 23.52108 55.39366 33821 ft 506 kts 187°
2026-04-23 10:57 23.48549 55.39526 33816 ft 513 kts 178°
2026-04-23 10:58 23.41566 55.41244 33823 ft 517 kts 170°
2026-04-23 10:58 23.34631 55.43464 33820 ft 520 kts 168°
2026-04-23 10:59 23.27676 55.45705 33822 ft 520 kts 168°
2026-04-23 10:59 23.20737 55.47920 33818 ft 519 kts 168°
2026-04-23 11:00 23.13817 55.50114 33818 ft 519 kts 168°
2026-04-23 11:00 23.06852 55.52314 33818 ft 520 kts 168°
2026-04-23 11:01 22.99887 55.54492 33817 ft 520 kts 168°
2026-04-23 11:01 22.92921 55.56630 33819 ft 522 kts 169°
2026-04-23 11:02 22.85923 55.58777 33812 ft 521 kts 169°
2026-04-23 11:02 22.78927 55.60921 33811 ft 520 kts 169°
2026-04-23 11:03 22.71959 55.63054 33813 ft 523 kts 169°
2026-04-23 11:03 22.64965 55.65194 33810 ft 522 kts 169°
2026-04-23 11:04 22.57948 55.67341 33808 ft 522 kts 168°
2026-04-23 11:04 22.50975 55.69475 33809 ft 522 kts 169°
2026-04-23 11:05 22.43978 55.71614 33807 ft 522 kts 169°
2026-04-23 11:05 22.36948 55.73761 33805 ft 522 kts 169°
2026-04-23 11:06 22.26408 55.76892 33797 ft 520 kts 174°
2026-04-23 11:07 22.19276 55.77800 33791 ft 515 kts 180°
2026-04-23 11:07 22.12159 55.78506 33785 ft 514 kts 180°
2026-04-23 11:08 22.04962 55.79219 33782 ft 517 kts 180°
2026-04-23 11:08 21.97811 55.79928 33781 ft 517 kts 180°
2026-04-23 11:09 21.90635 55.80640 33782 ft 517 kts 180°
2026-04-23 11:09 21.83443 55.81353 33772 ft 517 kts 180°
2026-04-23 11:10 21.76326 55.82058 33773 ft 516 kts 180°
2026-04-23 11:10 21.69140 55.82768 33777 ft 518 kts 180°
2026-04-23 11:11 21.61961 55.83474 33785 ft 515 kts 180°
2026-04-23 11:11 21.54795 55.84177 33790 ft 518 kts 180°
2026-04-23 11:12 21.47622 55.84881 33795 ft 516 kts 180°
2026-04-23 11:12 21.40454 55.85583 33801 ft 517 kts 180°
2026-04-23 11:13 21.33285 55.86285 33803 ft 516 kts 180°
2026-04-23 11:13 21.26076 55.86990 33807 ft 518 kts 180°
2026-04-23 11:14 21.18934 55.87687 33811 ft 514 kts 180°
2026-04-23 11:14 21.11770 55.88383 33809 ft 517 kts 180°
2026-04-23 11:15 21.04619 55.89079 33809 ft 516 kts 180°
2026-04-23 11:15 20.97444 55.89777 33816 ft 516 kts 180°
2026-04-23 11:16 20.90268 55.90472 33816 ft 519 kts 180°
2026-04-23 11:16 20.83117 55.91167 33808 ft 517 kts 180°
2026-04-23 11:17 20.75911 55.91866 33814 ft 518 kts 180°
2026-04-23 11:17 20.68749 55.92560 33813 ft 519 kts 180°
2026-04-23 11:18 20.61560 55.93256 33813 ft 518 kts 180°
2026-04-23 11:18 20.54371 55.93951 33816 ft 517 kts 180°
2026-04-23 11:19 20.47214 55.94642 33817 ft 519 kts 179°
2026-04-23 11:19 20.40003 55.95338 33815 ft 519 kts 179°
2026-04-23 11:20 20.32796 55.96034 33813 ft 518 kts 179°
2026-04-23 11:20 20.25579 55.96724 33813 ft 520 kts 179°
2026-04-23 11:21 20.18385 55.97409 33818 ft 518 kts 179°
2026-04-23 11:21 20.11210 55.98091 33816 ft 517 kts 179°
2026-04-23 11:22 20.04012 55.98592 33815 ft 516 kts 184°
2026-04-23 11:22 19.96867 55.98722 33805 ft 514 kts 184°
2026-04-23 11:23 19.89673 55.98867 33816 ft 519 kts 184°
2026-04-23 11:23 19.82422 55.99030 33808 ft 518 kts 183°
2026-04-23 11:24 19.75217 55.99199 33828 ft 519 kts 183°
2026-04-23 11:24 19.68009 55.99374 33827 ft 517 kts 183°
2026-04-23 11:25 19.60783 55.99551 33831 ft 519 kts 183°
2026-04-23 11:25 19.53627 55.99386 33833 ft 510 kts 193°
2026-04-23 11:26 19.46874 55.97272 33834 ft 502 kts 211°
2026-04-23 11:26 19.40816 55.93782 33836 ft 495 kts 215°
2026-04-23 11:27 19.34808 55.90174 33837 ft 495 kts 216°
2026-04-23 11:27 19.28842 55.86577 33840 ft 495 kts 216°
2026-04-23 11:28 19.22862 55.82968 33838 ft 494 kts 216°
2026-04-23 11:28 19.16874 55.79351 33843 ft 496 kts 216°
2026-04-23 11:29 19.10904 55.75748 33846 ft 494 kts 216°
2026-04-23 11:29 19.04924 55.72139 33844 ft 494 kts 216°
2026-04-23 11:30 18.98933 55.68528 33839 ft 494 kts 216°
2026-04-23 11:30 18.92948 55.64922 33844 ft 494 kts 216°
2026-04-23 11:31 18.86977 55.61328 33842 ft 495 kts 216°
2026-04-23 11:31 18.81005 55.57737 33833 ft 493 kts 216°
2026-04-23 11:32 18.75059 55.54163 33833 ft 496 kts 216°
2026-04-23 11:32 18.69049 55.50554 33829 ft 493 kts 216°
2026-04-23 11:33 18.63088 55.46977 33841 ft 495 kts 216°
2026-04-23 11:33 18.57110 55.43394 33832 ft 493 kts 216°
2026-04-23 11:34 18.51147 55.39821 33831 ft 495 kts 216°
2026-04-23 11:34 18.45153 55.36234 33831 ft 492 kts 216°
2026-04-23 11:35 18.39196 55.32671 33847 ft 494 kts 216°
2026-04-23 11:35 18.33202 55.29089 33839 ft 495 kts 216°
2026-04-23 11:36 18.27222 55.25521 33845 ft 492 kts 216°
2026-04-23 11:36 18.21227 55.21945 33842 ft 495 kts 216°
2026-04-23 11:37 18.15290 55.18410 33844 ft 495 kts 215°
2026-04-23 11:37 18.08954 55.15380 33858 ft 500 kts 209°
2026-04-23 11:38 18.02524 55.12501 33865 ft 499 kts 209°
2026-04-23 11:38 17.96146 55.09643 33876 ft 498 kts 209°
2026-04-23 11:39 17.89746 55.06775 33876 ft 500 kts 209°
2026-04-23 11:39 17.83337 55.03903 33882 ft 500 kts 209°
2026-04-23 11:40 17.76936 55.01037 33893 ft 499 kts 209°
2026-04-23 11:40 17.70521 54.98166 33899 ft 501 kts 209°
2026-04-23 11:41 17.64149 54.95317 33922 ft 498 kts 209°
2026-04-23 11:41 17.57788 54.92474 33934 ft 497 kts 209°
2026-04-23 11:42 17.51358 54.89601 33948 ft 501 kts 209°
2026-04-23 11:42 17.44981 54.86757 33967 ft 499 kts 210°
2026-04-23 11:43 17.38556 54.83891 33984 ft 501 kts 209°
2026-04-23 11:43 17.32150 54.81038 34002 ft 500 kts 209°
2026-04-23 11:44 17.25872 54.77965 34010 ft 491 kts 217°
2026-04-23 11:44 17.20107 54.74142 33990 ft 490 kts 219°
2026-04-23 11:45 17.14376 54.70297 33937 ft 493 kts 219°
2026-04-23 11:45 17.08600 54.66431 33896 ft 491 kts 219°
2026-04-23 11:46 17.02831 54.62573 33860 ft 492 kts 219°
2026-04-23 11:46 16.97076 54.58728 33840 ft 490 kts 219°
2026-04-23 11:47 16.91324 54.54888 33841 ft 489 kts 219°
2026-04-23 11:47 16.85620 54.51082 33841 ft 492 kts 219°
2026-04-23 11:48 16.79823 54.47216 33844 ft 492 kts 219°
2026-04-23 11:48 16.74050 54.43368 33852 ft 493 kts 219°
2026-04-23 11:49 16.68300 54.39540 33854 ft 492 kts 219°
2026-04-23 11:49 16.62517 54.35692 33853 ft 492 kts 219°
2026-04-23 11:50 16.56769 54.31871 33866 ft 489 kts 218°
2026-04-23 11:50 16.51014 54.28046 33868 ft 492 kts 218°
2026-04-23 11:51 16.45221 54.24201 33865 ft 491 kts 218°
2026-04-23 11:51 16.39463 54.20380 33862 ft 491 kts 219°
2026-04-23 11:52 16.33710 54.16566 33860 ft 489 kts 218°
2026-04-23 11:52 16.27941 54.12744 33854 ft 490 kts 218°
2026-04-23 11:53 16.22219 54.08955 33853 ft 490 kts 218°
2026-04-23 11:53 16.16436 54.05129 33853 ft 490 kts 218°
2026-04-23 11:54 16.10665 54.01314 33852 ft 491 kts 218°
2026-04-23 11:54 16.04912 53.97512 33852 ft 492 kts 218°
2026-04-23 11:55 15.99132 53.93698 33848 ft 488 kts 218°
2026-04-23 11:55 15.93378 53.89900 33848 ft 493 kts 218°
2026-04-23 11:56 15.87613 53.86100 33842 ft 489 kts 219°
2026-04-23 11:56 15.81840 53.82244 33838 ft 491 kts 219°
2026-04-23 11:57 15.76108 53.78409 33842 ft 491 kts 219°
2026-04-23 11:57 15.70377 53.74580 33843 ft 491 kts 219°
2026-04-23 11:58 15.64653 53.70758 33841 ft 489 kts 219°
2026-04-23 11:58 15.58912 53.66929 33842 ft 490 kts 219°
2026-04-23 11:59 15.53175 53.63105 33842 ft 489 kts 219°
2026-04-23 11:59 15.47466 53.59301 33842 ft 489 kts 219°
2026-04-23 12:00 15.41696 53.55477 33840 ft 489 kts 218°
2026-04-23 12:00 15.35896 53.51762 33842 ft 490 kts 218°
2026-04-23 12:01 15.30111 53.48062 33842 ft 490 kts 218°
2026-04-23 12:01 15.24314 53.44352 33842 ft 489 kts 218°
2026-04-23 12:02 15.18488 53.40622 33844 ft 492 kts 218°
2026-04-23 12:02 15.12706 53.36924 33842 ft 488 kts 218°
2026-04-23 12:03 15.06941 53.33238 33861 ft 488 kts 218°
2026-04-23 12:03 15.01123 53.29518 33863 ft 490 kts 218°
2026-04-23 12:04 14.95334 53.25821 33855 ft 489 kts 218°
2026-04-23 12:04 14.89538 53.22121 33856 ft 490 kts 218°
2026-04-23 12:05 14.83755 53.18433 33851 ft 488 kts 218°
2026-04-23 12:05 14.77949 53.14731 33846 ft 489 kts 217°
2026-04-23 12:06 14.72150 53.11035 33849 ft 491 kts 217°
2026-04-23 12:06 14.63459 53.05495 33836 ft 488 kts 218°
2026-04-23 12:07 14.57642 53.01752 33824 ft 493 kts 218°
2026-04-23 12:07 14.51836 52.98024 33831 ft 489 kts 218°
2026-04-23 12:08 14.46078 52.94327 33834 ft 489 kts 218°
2026-04-23 12:08 14.40262 52.90595 33835 ft 492 kts 218°
2026-04-23 12:09 14.34399 52.86836 33834 ft 494 kts 217°
2026-04-23 12:09 14.28584 52.83112 33831 ft 491 kts 217°
2026-04-23 12:10 14.22758 52.79381 33840 ft 495 kts 217°
2026-04-23 12:10 14.16909 52.75640 33843 ft 493 kts 217°
2026-04-23 12:11 14.11087 52.71917 33841 ft 492 kts 217°
2026-04-23 12:11 14.05236 52.68178 33842 ft 494 kts 217°
2026-04-23 12:12 13.99424 52.64466 33840 ft 492 kts 217°
2026-04-23 12:12 13.93607 52.60753 33837 ft 492 kts 218°
2026-04-23 12:13 13.87754 52.57020 33832 ft 493 kts 218°
2026-04-23 12:13 13.81944 52.53316 33834 ft 491 kts 217°
2026-04-23 12:14 13.76136 52.49616 33837 ft 493 kts 217°
2026-04-23 12:14 13.70268 52.45879 33835 ft 492 kts 217°
2026-04-23 12:15 13.64425 52.42160 33834 ft 495 kts 217°
2026-04-23 12:15 13.58603 52.38459 33833 ft 492 kts 217°
2026-04-23 12:16 13.52736 52.34729 33835 ft 494 kts 217°
2026-04-23 12:16 13.46923 52.31036 33844 ft 493 kts 217°
2026-04-23 12:17 13.41065 52.27317 33841 ft 492 kts 217°
2026-04-23 12:17 13.35249 52.23631 33840 ft 494 kts 217°
2026-04-23 12:18 13.29367 52.19913 33838 ft 494 kts 217°
2026-04-23 12:18 13.23558 52.16243 33845 ft 492 kts 217°
2026-04-23 12:19 13.17682 52.12532 33849 ft 493 kts 217°
2026-04-23 12:19 13.11844 52.08847 33840 ft 493 kts 217°
2026-04-23 12:20 13.06019 52.05173 33831 ft 492 kts 217°
2026-04-23 12:20 13.00173 52.01487 33831 ft 493 kts 217°
2026-04-23 12:21 12.94303 51.97788 33828 ft 494 kts 217°
2026-04-23 12:21 12.88477 51.94119 33826 ft 493 kts 217°
2026-04-23 12:22 12.82614 51.90429 33826 ft 492 kts 217°
2026-04-23 12:22 12.76809 51.86777 33822 ft 492 kts 217°
2026-04-23 12:23 12.70957 51.83098 33820 ft 493 kts 217°
2026-04-23 12:23 12.65111 51.79424 33818 ft 492 kts 217°
2026-04-23 12:24 12.59241 51.75736 33839 ft 499 kts 217°
2026-04-23 12:24 12.56251 51.73858 34225 ft 500 kts 217°
2026-04-23 12:24 12.53322 51.72022 34913 ft 494 kts 217°
2026-04-23 12:25 12.50379 51.70177 35557 ft 490 kts 217°
2026-04-23 12:25 12.47484 51.68361 35804 ft 493 kts 217°
2026-04-23 12:25 12.41596 51.64667 35814 ft 494 kts 217°
2026-04-23 12:26 12.35772 51.61018 35813 ft 494 kts 217°
2026-04-23 12:26 12.29874 51.57324 35805 ft 493 kts 217°
2026-04-23 12:27 12.24051 51.53678 35809 ft 494 kts 217°
2026-04-23 12:27 12.18179 51.50004 35804 ft 494 kts 217°
2026-04-23 12:28 12.12291 51.46322 35803 ft 493 kts 217°
2026-04-23 12:28 12.06422 51.42653 35798 ft 494 kts 217°
2026-04-23 12:29 12.00563 51.38992 35792 ft 494 kts 217°
2026-04-23 12:29 11.94700 51.35328 35785 ft 494 kts 217°
2026-04-23 12:30 11.88834 51.31663 35793 ft 494 kts 217°
2026-04-23 12:30 11.82984 51.28011 35796 ft 494 kts 216°
2026-04-23 12:31 11.77083 51.24329 35800 ft 494 kts 216°
2026-04-23 12:31 11.71210 51.20666 35802 ft 494 kts 216°
2026-04-23 12:32 11.65381 51.17032 35809 ft 494 kts 216°
2026-04-23 12:32 11.59512 51.13375 35834 ft 494 kts 216°
2026-04-23 12:33 11.53604 51.09696 35842 ft 494 kts 216°
2026-04-23 12:33 11.47725 51.06036 35860 ft 496 kts 216°
2026-04-23 12:34 11.41845 51.02378 35877 ft 495 kts 216°
2026-04-23 12:34 11.35992 50.98734 35890 ft 495 kts 216°
2026-04-23 12:35 11.30079 50.95051 35895 ft 494 kts 216°
2026-04-23 12:35 11.24243 50.91418 35898 ft 495 kts 216°
2026-04-23 12:36 11.18369 50.87763 35896 ft 494 kts 216°
2026-04-23 12:36 11.12469 50.84093 35891 ft 495 kts 216°
2026-04-23 12:37 11.06585 50.80436 35893 ft 494 kts 216°
2026-04-23 12:37 11.00728 50.76796 35892 ft 494 kts 216°
2026-04-23 12:38 10.94868 50.73157 35894 ft 493 kts 216°
2026-04-23 12:38 10.88973 50.69497 35887 ft 494 kts 216°
2026-04-23 12:39 10.83128 50.65870 35891 ft 494 kts 216°
2026-04-23 12:39 10.77241 50.62219 35894 ft 494 kts 216°
2026-04-23 12:40 10.71378 50.58585 35892 ft 493 kts 216°
2026-04-23 12:40 10.65505 50.54946 35899 ft 494 kts 216°
2026-04-23 12:41 10.59627 50.51305 35894 ft 494 kts 216°
2026-04-23 12:41 10.53764 50.47676 35889 ft 493 kts 216°
2026-04-23 12:42 10.47920 50.44060 35891 ft 493 kts 216°
2026-04-23 12:42 10.42069 50.40442 35888 ft 493 kts 216°
2026-04-23 12:43 10.36186 50.36805 35886 ft 493 kts 216°
2026-04-23 12:43 10.30324 50.33182 35895 ft 494 kts 216°
2026-04-23 12:44 10.24458 50.29559 35889 ft 495 kts 216°
2026-04-23 12:44 10.18554 50.25914 35895 ft 493 kts 216°
2026-04-23 12:45 10.12701 50.22301 35907 ft 494 kts 216°
2026-04-23 12:45 10.06805 50.18665 35907 ft 493 kts 215°
2026-04-23 12:46 10.00950 50.15055 35926 ft 494 kts 216°
2026-04-23 12:46 9.95056 50.11422 35930 ft 495 kts 215°
2026-04-23 12:47 9.89180 50.07802 35930 ft 495 kts 216°
2026-04-23 12:47 9.83276 50.04166 35918 ft 496 kts 216°
2026-04-23 12:48 9.77383 50.00539 35918 ft 494 kts 215°
2026-04-23 12:48 9.71497 49.96917 35920 ft 496 kts 215°
2026-04-23 12:49 9.65582 49.93279 35919 ft 495 kts 215°
2026-04-23 12:49 9.59682 49.89653 35914 ft 494 kts 215°
2026-04-23 12:50 9.53822 49.86051 35913 ft 495 kts 216°
2026-04-23 12:50 9.47909 49.82419 35908 ft 496 kts 215°
2026-04-23 12:51 9.42014 49.78799 35909 ft 495 kts 215°
2026-04-23 12:51 9.36099 49.75169 35914 ft 494 kts 215°
2026-04-23 12:52 9.30230 49.71568 35909 ft 494 kts 215°
2026-04-23 12:52 9.24347 49.67960 35908 ft 495 kts 215°
2026-04-23 12:53 9.18423 49.64330 35915 ft 495 kts 215°
2026-04-23 12:53 9.12525 49.60717 35913 ft 496 kts 215°
2026-04-23 12:54 9.06613 49.57097 35921 ft 496 kts 215°
2026-04-23 12:54 9.00701 49.53479 35921 ft 496 kts 215°
2026-04-23 12:55 8.94808 49.49874 35918 ft 495 kts 215°
2026-04-23 12:55 8.88933 49.46281 35919 ft 495 kts 215°
2026-04-23 12:56 8.83023 49.42668 35920 ft 495 kts 215°
2026-04-23 12:56 8.77115 49.39057 35923 ft 494 kts 215°
2026-04-23 12:57 8.71246 49.35473 35919 ft 495 kts 215°
2026-04-23 12:57 8.65326 49.31857 35926 ft 495 kts 215°
2026-04-23 12:58 8.59441 49.28267 35914 ft 493 kts 215°
2026-04-23 12:58 8.53524 49.24658 35908 ft 494 kts 215°
2026-04-23 12:59 8.47657 49.21083 35897 ft 494 kts 215°
2026-04-23 12:59 8.41747 49.17482 35892 ft 494 kts 215°
2026-04-23 13:00 8.35862 49.13898 35886 ft 493 kts 215°
2026-04-23 13:00 8.30004 49.10332 35888 ft 493 kts 215°
2026-04-23 13:01 8.24118 49.06749 35887 ft 493 kts 215°
2026-04-23 13:01 8.18235 49.03170 35893 ft 493 kts 215°
2026-04-23 13:02 8.12345 48.99588 35898 ft 494 kts 215°
2026-04-23 13:02 8.06474 48.96019 35906 ft 493 kts 214°
2026-04-23 13:03 8.00599 48.92448 35910 ft 493 kts 214°
2026-04-23 13:03 7.94706 48.88867 35911 ft 492 kts 214°
2026-04-23 13:04 7.88820 48.85293 35904 ft 492 kts 215°
2026-04-23 13:04 7.82966 48.81738 35901 ft 492 kts 214°
2026-04-23 13:05 7.77089 48.78171 35896 ft 493 kts 214°
2026-04-23 13:05 7.71202 48.74599 35892 ft 493 kts 214°
2026-04-23 13:06 7.62391 48.69255 35885 ft 493 kts 214°
2026-04-23 13:07 7.56505 48.65687 35877 ft 492 kts 214°
2026-04-23 13:07 7.50645 48.62136 35874 ft 491 kts 214°
2026-04-23 13:08 7.44782 48.58583 35869 ft 492 kts 214°
2026-04-23 13:08 7.38880 48.55009 35864 ft 492 kts 214°
2026-04-23 13:09 7.33019 48.51456 35859 ft 492 kts 215°
2026-04-23 13:09 7.27177 48.47849 35845 ft 491 kts 215°
2026-04-23 13:10 7.21357 48.44254 35835 ft 492 kts 215°
2026-04-23 13:10 7.15527 48.40656 35831 ft 491 kts 215°
2026-04-23 13:11 7.09671 48.37044 35824 ft 491 kts 215°
2026-04-23 13:11 7.03845 48.33452 35826 ft 492 kts 215°
2026-04-23 13:12 6.97970 48.29832 35823 ft 493 kts 215°
2026-04-23 13:12 6.92126 48.26232 35818 ft 492 kts 215°
2026-04-23 13:13 6.86303 48.22646 35806 ft 490 kts 215°
2026-04-23 13:13 6.80498 48.19072 35811 ft 491 kts 215°
2026-04-23 13:14 6.74644 48.15469 35818 ft 492 kts 215°
2026-04-23 13:14 6.68816 48.11884 35819 ft 491 kts 215°
2026-04-23 13:15 6.62984 48.08297 35817 ft 491 kts 215°
2026-04-23 13:15 6.57146 48.04706 35815 ft 490 kts 215°
2026-04-23 13:16 6.51323 48.01127 35811 ft 490 kts 215°
2026-04-23 13:16 6.45500 47.97548 35808 ft 490 kts 215°
2026-04-23 13:17 6.39689 47.93977 35807 ft 491 kts 215°
2026-04-23 13:17 6.33861 47.90398 35804 ft 490 kts 215°
2026-04-23 13:18 6.28023 47.86813 35802 ft 490 kts 215°
2026-04-23 13:18 6.22192 47.83233 35801 ft 489 kts 215°
2026-04-23 13:19 6.16375 47.79663 35800 ft 490 kts 215°
2026-04-23 13:19 6.10538 47.76081 35798 ft 490 kts 215°
2026-04-23 13:20 6.04743 47.72526 35797 ft 490 kts 215°
2026-04-23 13:20 5.98900 47.68943 35795 ft 490 kts 215°
2026-04-23 13:21 5.93111 47.65393 35794 ft 489 kts 214°
2026-04-23 13:21 5.87262 47.61808 35787 ft 489 kts 215°
2026-04-23 13:22 5.81448 47.58245 35790 ft 489 kts 215°
2026-04-23 13:22 5.75617 47.54672 35789 ft 490 kts 215°
2026-04-23 13:23 5.69811 47.51116 35792 ft 490 kts 215°
2026-04-23 13:23 5.64008 47.47568 35788 ft 489 kts 214°
2026-04-23 13:24 5.58152 47.44032 35787 ft 489 kts 214°
2026-04-23 13:24 5.52311 47.40507 35787 ft 490 kts 214°
2026-04-23 13:25 5.46433 47.36960 35785 ft 490 kts 214°
2026-04-23 13:25 5.40613 47.33447 35794 ft 490 kts 214°
2026-04-23 13:26 5.34756 47.29913 35792 ft 490 kts 214°
2026-04-23 13:26 5.28886 47.26371 35792 ft 491 kts 214°
2026-04-23 13:27 5.23030 47.22839 35791 ft 490 kts 214°
2026-04-23 13:27 5.17178 47.19309 35788 ft 491 kts 214°
2026-04-23 13:28 5.11334 47.15786 35784 ft 490 kts 214°
2026-04-23 13:28 5.05478 47.12255 35784 ft 490 kts 214°
2026-04-23 13:29 4.99657 47.08747 35784 ft 490 kts 214°
2026-04-23 13:29 4.93799 47.05217 35782 ft 490 kts 214°
2026-04-23 13:30 4.87945 47.01689 35786 ft 491 kts 214°
2026-04-23 13:30 4.82086 46.98161 35780 ft 490 kts 214°
2026-04-23 13:31 4.76234 46.94636 35784 ft 492 kts 214°
2026-04-23 13:31 4.70353 46.91095 35791 ft 490 kts 214°
2026-04-23 13:32 4.64499 46.87571 35805 ft 489 kts 214°
2026-04-23 13:32 4.58678 46.84067 35811 ft 490 kts 214°
2026-04-23 13:33 4.52822 46.80544 35807 ft 490 kts 214°
2026-04-23 13:33 4.46950 46.77011 35812 ft 491 kts 214°
2026-04-23 13:34 4.41088 46.73485 35818 ft 491 kts 213°
2026-04-23 13:34 4.35246 46.69971 35817 ft 490 kts 213°
2026-04-23 13:35 4.29379 46.66443 35812 ft 490 kts 213°
2026-04-23 13:35 4.23559 46.62944 35815 ft 490 kts 213°
2026-04-23 13:36 4.17677 46.59409 35821 ft 490 kts 213°
2026-04-23 13:36 4.11827 46.55893 35813 ft 490 kts 213°
2026-04-23 13:37 4.06009 46.52397 35824 ft 490 kts 213°
2026-04-23 13:37 4.00135 46.48868 35821 ft 490 kts 213°
2026-04-23 13:38 3.94301 46.45364 35819 ft 490 kts 213°
2026-04-23 13:38 3.88421 46.41832 35822 ft 491 kts 213°
2026-04-23 13:39 3.82581 46.38325 35826 ft 490 kts 213°
2026-04-23 13:39 3.76722 46.34808 35822 ft 491 kts 213°
2026-04-23 13:40 3.70850 46.31283 35826 ft 491 kts 213°
2026-04-23 13:40 3.65015 46.27781 35830 ft 490 kts 213°
2026-04-23 13:41 3.59151 46.24262 35833 ft 491 kts 213°
2026-04-23 13:41 3.53274 46.20736 35837 ft 490 kts 213°
2026-04-23 13:42 3.47407 46.17215 35840 ft 492 kts 213°
2026-04-23 13:42 3.41523 46.13686 35841 ft 492 kts 213°
2026-04-23 13:43 3.35679 46.10181 35841 ft 492 kts 213°
2026-04-23 13:43 3.29770 46.06638 35839 ft 492 kts 213°
2026-04-23 13:44 3.23917 46.03128 35838 ft 492 kts 213°
2026-04-23 13:44 3.18010 45.99587 35841 ft 492 kts 213°
2026-04-23 13:45 3.12129 45.96063 35837 ft 491 kts 213°
2026-04-23 13:45 3.06249 45.92538 35837 ft 492 kts 213°
2026-04-23 13:46 3.00366 45.89012 35834 ft 493 kts 213°
2026-04-23 13:46 2.94490 45.85492 35834 ft 494 kts 213°
2026-04-23 13:47 2.88569 45.81944 35832 ft 493 kts 213°
2026-04-23 13:47 2.82674 45.78413 35833 ft 493 kts 213°
2026-04-23 13:48 2.76811 45.74902 35833 ft 493 kts 213°
2026-04-23 13:48 2.70943 45.71387 35834 ft 492 kts 213°
2026-04-23 13:49 2.65066 45.67868 35832 ft 492 kts 213°
2026-04-23 13:49 2.59166 45.64335 35832 ft 492 kts 213°
2026-04-23 13:50 2.53288 45.60816 35834 ft 492 kts 213°
2026-04-23 13:50 2.47403 45.57293 35832 ft 492 kts 213°
2026-04-23 13:51 2.41539 45.53783 35828 ft 492 kts 213°
2026-04-23 13:51 2.35668 45.50270 35824 ft 491 kts 213°
2026-04-23 13:52 2.29789 45.46751 35819 ft 491 kts 213°
2026-04-23 13:52 2.23880 45.43215 35818 ft 492 kts 213°
2026-04-23 13:53 2.18031 45.39716 35818 ft 492 kts 213°
2026-04-23 13:53 2.12130 45.36186 35817 ft 492 kts 213°
2026-04-23 13:54 2.06271 45.32681 35819 ft 491 kts 212°
2026-04-23 13:54 2.00388 45.29162 35820 ft 491 kts 213°
2026-04-23 13:55 1.94705 45.25392 35818 ft 491 kts 216°
2026-04-23 13:55 1.89059 45.21544 35815 ft 490 kts 216°
2026-04-23 13:56 1.83411 45.17713 35812 ft 491 kts 216°
2026-04-23 13:56 1.77771 45.13899 35808 ft 490 kts 216°
2026-04-23 13:57 1.72102 45.10070 35807 ft 490 kts 216°
2026-04-23 13:57 1.66427 45.06241 35806 ft 490 kts 216°
2026-04-23 13:58 1.60794 45.02441 35805 ft 489 kts 216°
2026-04-23 13:58 1.55130 44.98622 35809 ft 489 kts 216°
2026-04-23 13:59 1.49494 44.94822 35815 ft 489 kts 216°
2026-04-23 13:59 1.43844 44.91013 35815 ft 489 kts 216°
2026-04-23 14:00 1.39163 44.87858 35820 ft 489 kts 216°
2026-04-23 14:00 1.32558 44.83406 35822 ft 489 kts 216°
2026-04-23 14:01 1.26929 44.79613 35823 ft 489 kts 216°
2026-04-23 14:01 1.21294 44.75815 35826 ft 488 kts 216°
2026-04-23 14:02 1.15627 44.71996 35823 ft 488 kts 216°
2026-04-23 14:02 1.09994 44.68200 35826 ft 488 kts 216°
2026-04-23 14:03 1.04380 44.64417 35825 ft 488 kts 215°
2026-04-23 14:03 0.98750 44.60624 35826 ft 489 kts 215°
2026-04-23 14:04 0.93086 44.56808 35828 ft 489 kts 216°
2026-04-23 14:04 0.87459 44.53017 35826 ft 489 kts 216°
2026-04-23 14:05 0.81808 44.49210 35826 ft 489 kts 215°
2026-04-23 14:05 0.76160 44.45404 35826 ft 489 kts 216°
2026-04-23 14:06 0.70518 44.41604 35825 ft 489 kts 216°
2026-04-23 14:06 0.64864 44.37794 35821 ft 489 kts 216°
2026-04-23 14:07 0.59234 44.34002 35817 ft 489 kts 215°
2026-04-23 14:07 0.50788 44.28313 35811 ft 489 kts 216°
2026-04-23 14:08 0.45119 44.24494 35807 ft 489 kts 215°
2026-04-23 14:08 0.39473 44.20691 35808 ft 489 kts 215°
2026-04-23 14:09 0.33821 44.16884 35808 ft 488 kts 215°
2026-04-23 14:09 0.28207 44.13092 35807 ft 488 kts 215°
2026-04-23 14:10 0.22561 44.09271 35807 ft 489 kts 216°
2026-04-23 14:10 0.16949 44.05472 35810 ft 489 kts 215°
2026-04-23 14:11 0.11293 44.01645 35813 ft 490 kts 215°
2026-04-23 14:11 0.05634 43.97815 35820 ft 489 kts 215°
2026-04-23 14:12 0.00018 43.94015 35828 ft 489 kts 215°
2026-04-23 14:12 -0.05619 43.90201 35826 ft 489 kts 216°
2026-04-23 14:13 -0.11273 43.86375 35826 ft 488 kts 216°
2026-04-23 14:13 -0.16881 43.82580 35826 ft 488 kts 216°
2026-04-23 14:14 -0.22534 43.78754 35823 ft 489 kts 216°
2026-04-23 14:14 -0.28186 43.74929 35826 ft 489 kts 216°
2026-04-23 14:15 -0.33808 43.71125 35825 ft 489 kts 216°
2026-04-23 14:15 -0.39456 43.67303 35824 ft 489 kts 216°
2026-04-23 14:16 -0.45082 43.63496 35825 ft 489 kts 216°
2026-04-23 14:16 -0.50717 43.59683 35825 ft 488 kts 216°
2026-04-23 14:17 -0.56371 43.55857 35824 ft 489 kts 216°
2026-04-23 14:17 -0.62000 43.52047 35825 ft 488 kts 216°
2026-04-23 14:18 -0.67616 43.48246 35825 ft 489 kts 216°
2026-04-23 14:18 -0.73255 43.44430 35825 ft 488 kts 216°
2026-04-23 14:19 -0.78880 43.40623 35825 ft 488 kts 216°
2026-04-23 14:19 -0.84481 43.36832 35825 ft 488 kts 216°
2026-04-23 14:20 -0.90116 43.33019 35829 ft 488 kts 216°
2026-04-23 14:20 -0.95729 43.29219 35829 ft 487 kts 216°
2026-04-23 14:21 -1.01355 43.25411 35828 ft 487 kts 216°
2026-04-23 14:21 -1.06949 43.21624 35825 ft 486 kts 216°
2026-04-23 14:22 -1.12567 43.17820 35823 ft 487 kts 216°
2026-04-23 14:22 -1.18204 43.14004 35826 ft 487 kts 216°
2026-04-23 14:23 -1.23790 43.10222 35831 ft 487 kts 216°
2026-04-23 14:23 -1.29400 43.06424 35832 ft 486 kts 216°
2026-04-23 14:24 -1.35003 43.02630 35834 ft 486 kts 216°
2026-04-23 14:24 -1.40591 42.98846 35835 ft 485 kts 216°
2026-04-23 14:25 -1.46195 42.95050 35839 ft 486 kts 216°
2026-04-23 14:25 -1.51791 42.91261 35838 ft 485 kts 216°
2026-04-23 14:26 -1.57418 42.87450 35840 ft 486 kts 216°
2026-04-23 14:26 -1.62982 42.83682 35835 ft 484 kts 216°
2026-04-23 14:27 -1.68574 42.79894 35831 ft 485 kts 216°
2026-04-23 14:27 -1.74145 42.76120 35833 ft 483 kts 215°
2026-04-23 14:28 -1.79733 42.72334 35835 ft 485 kts 215°
2026-04-23 14:28 -1.85314 42.68553 35833 ft 485 kts 215°
2026-04-23 14:29 -1.90924 42.64752 35832 ft 485 kts 215°
2026-04-23 14:29 -1.96518 42.60961 35832 ft 485 kts 215°
2026-04-23 14:30 -2.02100 42.57166 35827 ft 485 kts 216°
2026-04-23 14:30 -2.07634 42.53325 35829 ft 485 kts 216°
2026-04-23 14:31 -2.13146 42.49497 35829 ft 484 kts 216°
2026-04-23 14:31 -2.18698 42.45644 35831 ft 484 kts 216°
2026-04-23 14:32 -2.24227 42.41755 35834 ft 485 kts 217°
2026-04-23 14:32 -2.29630 42.37751 35832 ft 485 kts 217°
2026-04-23 14:33 -2.35053 42.33738 35832 ft 484 kts 217°
2026-04-23 14:33 -2.40481 42.29726 35835 ft 485 kts 217°
2026-04-23 14:34 -2.45903 42.25724 35832 ft 484 kts 217°
2026-04-23 14:34 -2.51336 42.21713 35835 ft 485 kts 217°
2026-04-23 14:35 -2.56758 42.17712 35838 ft 484 kts 217°
2026-04-23 14:35 -2.62203 42.13695 35845 ft 485 kts 217°
2026-04-23 14:36 -2.67638 42.09684 35853 ft 485 kts 217°
2026-04-23 14:36 -2.73073 42.05674 35862 ft 485 kts 217°
2026-04-23 14:37 -2.78510 42.01662 35862 ft 486 kts 217°
2026-04-23 14:37 -2.83943 41.97651 35854 ft 485 kts 217°
2026-04-23 14:38 -2.89348 41.93662 35848 ft 485 kts 218°
2026-04-23 14:38 -2.94789 41.89645 35848 ft 486 kts 218°
2026-04-23 14:39 -3.00261 41.85604 35850 ft 486 kts 217°
2026-04-23 14:39 -3.05696 41.81591 35855 ft 486 kts 218°
2026-04-23 14:40 -3.11151 41.77562 35855 ft 486 kts 218°
2026-04-23 14:40 -3.16650 41.73500 36447 ft 490 kts 218°
2026-04-23 14:41 -3.19356 41.71502 37156 ft 484 kts 218°
2026-04-23 14:41 -3.22061 41.69504 37705 ft 481 kts 218°
2026-04-23 14:41 -3.24739 41.67525 37844 ft 484 kts 218°
2026-04-23 14:41 -3.27464 41.65512 37855 ft 485 kts 218°
2026-04-23 14:42 -3.32906 41.61490 37851 ft 484 kts 218°
2026-04-23 14:42 -3.38325 41.57485 37854 ft 484 kts 218°
2026-04-23 14:43 -3.43721 41.53497 37849 ft 484 kts 218°
2026-04-23 14:43 -3.49144 41.49488 37852 ft 484 kts 218°
2026-04-23 14:44 -3.54551 41.45491 37854 ft 482 kts 218°
2026-04-23 14:44 -3.59954 41.41495 37851 ft 482 kts 218°
2026-04-23 14:45 -3.65363 41.37495 37852 ft 481 kts 218°
2026-04-23 14:45 -3.70756 41.33506 37862 ft 483 kts 218°
2026-04-23 14:46 -3.76159 41.29508 37861 ft 483 kts 218°
2026-04-23 14:46 -3.81546 41.25523 37863 ft 482 kts 218°
2026-04-23 14:47 -3.86933 41.21536 37868 ft 480 kts 218°
2026-04-23 14:47 -3.92304 41.17560 37865 ft 481 kts 218°
2026-04-23 14:48 -3.97692 41.13572 37870 ft 481 kts 218°
2026-04-23 14:48 -4.03331 41.09901 37866 ft 484 kts 213°
2026-04-23 14:49 -4.09084 41.06404 37867 ft 484 kts 213°
2026-04-23 14:49 -4.14859 41.02889 37867 ft 484 kts 213°
2026-04-23 14:50 -4.20617 40.99383 37863 ft 483 kts 213°
2026-04-23 14:50 -4.26352 40.95887 37868 ft 483 kts 213°
2026-04-23 14:51 -4.32110 40.92377 37868 ft 483 kts 213°
2026-04-23 14:51 -4.37860 40.88871 37865 ft 482 kts 213°
2026-04-23 14:52 -4.43568 40.85389 37867 ft 481 kts 213°
2026-04-23 14:52 -4.49299 40.81892 37864 ft 482 kts 213°
2026-04-23 14:53 -4.55027 40.78397 37865 ft 482 kts 213°
2026-04-23 14:53 -4.60759 40.74898 37865 ft 482 kts 213°
2026-04-23 14:54 -4.66506 40.71390 37864 ft 482 kts 213°
2026-04-23 14:54 -4.72252 40.67881 37864 ft 482 kts 213°
2026-04-23 14:55 -4.77953 40.64399 37864 ft 481 kts 213°
2026-04-23 14:55 -4.83573 40.60706 37874 ft 479 kts 219°
2026-04-23 14:56 -4.88809 40.56598 37866 ft 478 kts 220°
2026-04-23 14:56 -4.94034 40.52483 37864 ft 479 kts 219°
2026-04-23 14:57 -4.99279 40.48354 37867 ft 478 kts 219°
2026-04-23 14:57 -5.04526 40.44224 37866 ft 479 kts 219°
2026-04-23 14:58 -5.09761 40.40111 37859 ft 479 kts 218°
2026-04-23 14:58 -5.15627 40.36881 37868 ft 482 kts 204°
2026-04-23 14:59 -5.21838 40.34317 37869 ft 481 kts 204°
2026-04-23 14:59 -5.28012 40.31778 37869 ft 479 kts 204°
2026-04-23 15:00 -5.34164 40.29245 37869 ft 478 kts 204°
2026-04-23 15:00 -5.40351 40.26696 37869 ft 480 kts 204°
2026-04-23 15:01 -5.46568 40.24133 37869 ft 481 kts 204°
2026-04-23 15:01 -5.52748 40.21585 37869 ft 480 kts 204°
2026-04-23 15:02 -5.58917 40.19040 37870 ft 480 kts 204°
2026-04-23 15:02 -5.65132 40.16476 37879 ft 478 kts 204°
2026-04-23 15:03 -5.71287 40.13936 37887 ft 477 kts 204°
2026-04-23 15:03 -5.77448 40.11393 37888 ft 478 kts 204°
2026-04-23 15:04 -5.83578 40.08862 37887 ft 477 kts 204°
2026-04-23 15:04 -5.89745 40.06315 37888 ft 477 kts 204°
2026-04-23 15:05 -5.95873 40.03783 37888 ft 478 kts 204°
2026-04-23 15:05 -6.02022 40.01243 37890 ft 477 kts 204°
2026-04-23 15:06 -6.08207 39.98687 37888 ft 477 kts 204°
2026-04-23 15:06 -6.14361 39.96142 37880 ft 480 kts 204°
2026-04-23 15:07 -6.20548 39.93584 37869 ft 480 kts 204°
2026-04-23 15:07 -6.26705 39.91038 37870 ft 480 kts 204°
2026-04-23 15:08 -6.32891 39.88479 37869 ft 480 kts 204°
2026-04-23 15:09 -6.42178 39.84635 37871 ft 480 kts 204°
2026-04-23 15:09 -6.48353 39.82079 37870 ft 479 kts 204°
2026-04-23 15:10 -6.53509 39.79944 37868 ft 479 kts 204°
2026-04-23 15:10 -6.60678 39.76975 37877 ft 479 kts 204°
2026-04-23 15:11 -6.66854 39.74416 37880 ft 480 kts 204°
2026-04-23 15:11 -6.73062 39.71843 37884 ft 480 kts 203°
2026-04-23 15:12 -6.79228 39.69287 37884 ft 480 kts 203°
2026-04-23 15:12 -6.85429 39.66716 37885 ft 479 kts 203°
2026-04-23 15:13 -6.91591 39.64160 37888 ft 479 kts 203°
2026-04-23 15:13 -6.97745 39.61607 37887 ft 478 kts 203°
2026-04-23 15:14 -7.03922 39.59043 37891 ft 479 kts 203°
2026-04-23 15:14 -7.10055 39.56497 37892 ft 478 kts 203°
2026-04-23 15:15 -7.16254 39.53923 37898 ft 478 kts 203°
2026-04-23 15:15 -7.22411 39.51365 37898 ft 477 kts 203°
2026-04-23 15:16 -7.28545 39.48817 37897 ft 477 kts 203°
2026-04-23 15:16 -7.34706 39.46256 37896 ft 476 kts 202°
2026-04-23 15:17 -7.40839 39.43706 37897 ft 477 kts 202°
2026-04-23 15:17 -7.46957 39.41163 37894 ft 476 kts 202°
2026-04-23 15:18 -7.53082 39.38614 37894 ft 476 kts 202°
2026-04-23 15:18 -7.59236 39.36053 37895 ft 476 kts 202°
2026-04-23 15:19 -7.65388 39.33493 37895 ft 476 kts 202°
2026-04-23 15:19 -7.71506 39.30945 37893 ft 476 kts 202°
2026-04-23 15:20 -7.76635 39.28809 37892 ft 476 kts 202°
2026-04-23 15:20 -7.83762 39.25840 37892 ft 476 kts 202°
2026-04-23 15:21 -7.89878 39.23291 37892 ft 475 kts 202°
2026-04-23 15:21 -7.95988 39.20743 37895 ft 474 kts 202°
2026-04-23 15:22 -8.02096 39.18196 37900 ft 474 kts 202°
2026-04-23 15:22 -8.08212 39.15645 37907 ft 474 kts 202°
2026-04-23 15:23 -8.14314 39.13098 37911 ft 474 kts 202°
2026-04-23 15:23 -8.20441 39.10540 37914 ft 474 kts 202°
2026-04-23 15:24 -8.26553 39.07988 37918 ft 475 kts 202°
2026-04-23 15:24 -8.32635 39.05447 37925 ft 473 kts 202°
2026-04-23 15:25 -8.38760 39.02888 37934 ft 474 kts 202°
2026-04-23 15:25 -8.44838 39.00347 37939 ft 472 kts 202°
2026-04-23 15:26 -8.50899 38.97813 37947 ft 473 kts 202°
2026-04-23 15:26 -8.57018 38.95253 37943 ft 473 kts 202°
2026-04-23 15:27 -8.63097 38.92709 37938 ft 473 kts 202°
2026-04-23 15:27 -8.69215 38.90148 37929 ft 473 kts 202°
2026-04-23 15:28 -8.75319 38.87592 37924 ft 474 kts 202°
2026-04-23 15:28 -8.81419 38.85037 37927 ft 474 kts 202°
2026-04-23 15:29 -8.87494 38.82491 37927 ft 473 kts 202°
2026-04-23 15:29 -8.93586 38.79938 37923 ft 473 kts 202°
2026-04-23 15:30 -8.99665 38.77388 37922 ft 473 kts 202°
2026-04-23 15:30 -9.05772 38.74826 37926 ft 472 kts 202°
2026-04-23 15:31 -9.11846 38.72277 37934 ft 473 kts 202°
2026-04-23 15:31 -9.17948 38.69716 37939 ft 473 kts 202°
2026-04-23 15:32 -9.24044 38.67155 37946 ft 473 kts 202°
2026-04-23 15:32 -9.30118 38.64603 37953 ft 473 kts 202°
2026-04-23 15:33 -9.36207 38.62044 37960 ft 474 kts 202°
2026-04-23 15:33 -9.42327 38.59472 37965 ft 472 kts 202°
2026-04-23 15:34 -9.48396 38.56919 37972 ft 473 kts 202°
2026-04-23 15:34 -9.54466 38.54364 37974 ft 472 kts 202°
2026-04-23 15:35 -9.60563 38.51798 37969 ft 473 kts 202°
2026-04-23 15:35 -9.66642 38.49238 37966 ft 472 kts 202°
2026-04-23 15:36 -9.72705 38.46684 37973 ft 473 kts 202°
2026-04-23 15:36 -9.78804 38.44114 37970 ft 473 kts 202°
2026-04-23 15:37 -9.84884 38.41550 37982 ft 473 kts 202°
2026-04-23 15:37 -9.90991 38.38975 37978 ft 472 kts 202°
2026-04-23 15:38 -9.97048 38.36419 37977 ft 471 kts 202°
2026-04-23 15:38 -10.03080 38.33873 37976 ft 472 kts 202°
2026-04-23 15:39 -10.09172 38.31301 37975 ft 471 kts 202°
2026-04-23 15:39 -10.15251 38.28733 37979 ft 473 kts 202°
2026-04-23 15:40 -10.21341 38.26159 37979 ft 472 kts 202°
2026-04-23 15:40 -10.27416 38.23590 37980 ft 473 kts 202°
2026-04-23 15:41 -10.33518 38.21009 37984 ft 474 kts 202°
2026-04-23 15:41 -10.39618 38.18428 37987 ft 473 kts 202°
2026-04-23 15:42 -10.45699 38.15853 37990 ft 472 kts 202°
2026-04-23 15:42 -10.51771 38.13282 37992 ft 473 kts 202°
2026-04-23 15:43 -10.57836 38.10712 37990 ft 473 kts 202°
2026-04-23 15:43 -10.63939 38.08125 37988 ft 473 kts 202°
2026-04-23 15:44 -10.70018 38.05547 37987 ft 474 kts 202°
2026-04-23 15:44 -10.76112 38.02962 37986 ft 474 kts 202°
2026-04-23 15:45 -10.82187 38.00383 37985 ft 474 kts 202°
2026-04-23 15:45 -10.88306 37.97785 37983 ft 475 kts 202°
2026-04-23 15:46 -10.94396 37.95198 37989 ft 475 kts 201°
2026-04-23 15:46 -11.00512 37.92599 37984 ft 474 kts 201°
2026-04-23 15:47 -11.06603 37.90009 37979 ft 474 kts 201°
2026-04-23 15:47 -11.12701 37.87415 37987 ft 473 kts 201°
2026-04-23 15:48 -11.18792 37.84823 37992 ft 473 kts 202°
2026-04-23 15:48 -11.24851 37.82243 37994 ft 474 kts 202°
2026-04-23 15:49 -11.30967 37.79638 37992 ft 474 kts 201°
2026-04-23 15:49 -11.37065 37.77039 37994 ft 474 kts 201°
2026-04-23 15:50 -11.43136 37.74450 37988 ft 473 kts 201°
2026-04-23 15:50 -11.49243 37.71846 37989 ft 473 kts 201°
2026-04-23 15:51 -11.55321 37.69252 37991 ft 474 kts 201°
2026-04-23 15:51 -11.61413 37.66650 37989 ft 472 kts 201°
2026-04-23 15:52 -11.67543 37.64254 37998 ft 472 kts 197°
2026-04-23 15:52 -11.73764 37.62191 37990 ft 471 kts 197°
2026-04-23 15:53 -11.79993 37.60101 37991 ft 470 kts 197°
2026-04-23 15:53 -11.86243 37.57987 37997 ft 471 kts 197°
2026-04-23 15:54 -11.92457 37.55876 38006 ft 471 kts 197°
2026-04-23 15:54 -11.98668 37.53761 38010 ft 472 kts 197°
2026-04-23 15:55 -12.04910 37.51632 38012 ft 471 kts 197°
2026-04-23 15:55 -12.11162 37.49497 38014 ft 472 kts 198°
2026-04-23 15:56 -12.17385 37.47370 38021 ft 471 kts 198°
2026-04-23 15:56 -12.23611 37.45242 38021 ft 470 kts 198°
2026-04-23 15:57 -12.29848 37.43107 38019 ft 470 kts 197°
2026-04-23 15:57 -12.36051 37.40984 38019 ft 470 kts 197°
2026-04-23 15:58 -12.42259 37.38858 38019 ft 471 kts 197°
2026-04-23 15:58 -12.48518 37.36712 38013 ft 470 kts 198°
2026-04-23 15:59 -12.54712 37.34589 38013 ft 469 kts 198°
2026-04-23 15:59 -12.60912 37.32462 38015 ft 470 kts 198°
2026-04-23 16:00 -12.67119 37.30331 38015 ft 469 kts 198°
2026-04-23 16:00 -12.73316 37.28204 38015 ft 470 kts 198°
2026-04-23 16:01 -12.79528 37.26069 38016 ft 470 kts 198°
2026-04-23 16:01 -12.85772 37.23952 38017 ft 471 kts 197°
2026-04-23 16:02 -12.92002 37.21891 38015 ft 470 kts 197°
2026-04-23 16:02 -12.98247 37.19822 38016 ft 469 kts 197°
2026-04-23 16:03 -13.04451 37.17764 38020 ft 468 kts 197°
2026-04-23 16:03 -13.10655 37.15703 38022 ft 468 kts 197°
2026-04-23 16:04 -13.16890 37.13630 38033 ft 469 kts 197°
2026-04-23 16:04 -13.23088 37.11568 38037 ft 469 kts 197°
2026-04-23 16:05 -13.28236 37.09855 38044 ft 468 kts 197°
2026-04-23 16:05 -13.35506 37.07434 38056 ft 468 kts 197°
2026-04-23 16:06 -13.41689 37.05374 38069 ft 468 kts 197°
2026-04-23 16:06 -13.47906 37.03301 38085 ft 467 kts 197°
2026-04-23 16:07 -13.54095 37.01237 38091 ft 468 kts 197°
2026-04-23 16:07 -13.60267 36.99177 38095 ft 467 kts 197°
2026-04-23 16:08 -13.66475 36.97104 38094 ft 467 kts 197°
2026-04-23 16:08 -13.72632 36.95046 38103 ft 467 kts 197°
2026-04-23 16:09 -13.78842 36.92971 38107 ft 467 kts 197°
2026-04-23 16:09 -13.85031 36.90900 38104 ft 467 kts 197°
2026-04-23 16:10 -13.91196 36.88837 38092 ft 467 kts 197°
2026-04-23 16:10 -13.97424 36.86751 38084 ft 467 kts 197°
2026-04-23 16:11 -14.03601 36.84684 38080 ft 466 kts 197°
2026-04-23 16:11 -14.09765 36.82658 38076 ft 466 kts 197°
2026-04-23 16:12 -14.15981 36.80615 38086 ft 466 kts 197°
2026-04-23 16:12 -14.22132 36.78590 38085 ft 465 kts 197°
2026-04-23 16:13 -14.28331 36.76548 38087 ft 465 kts 197°
2026-04-23 16:13 -14.37599 36.73493 38083 ft 465 kts 197°
2026-04-23 16:14 -14.43779 36.71453 38083 ft 465 kts 197°
2026-04-23 16:14 -14.49950 36.69416 38083 ft 464 kts 197°
2026-04-23 16:15 -14.56112 36.67381 38080 ft 465 kts 197°
2026-04-23 16:15 -14.62247 36.65353 38081 ft 464 kts 197°
2026-04-23 16:16 -14.68441 36.63304 38076 ft 464 kts 197°
2026-04-23 16:16 -14.74577 36.61274 38072 ft 464 kts 197°
2026-04-23 16:17 -14.80750 36.59229 38078 ft 464 kts 197°
2026-04-23 16:17 -14.86905 36.57190 38083 ft 463 kts 197°
2026-04-23 16:18 -14.93041 36.55156 38088 ft 464 kts 197°
2026-04-23 16:18 -14.99158 36.53126 38089 ft 462 kts 198°
2026-04-23 16:19 -15.05329 36.51078 38082 ft 464 kts 198°
2026-04-23 16:19 -15.11480 36.49035 38085 ft 463 kts 198°
2026-04-23 16:20 -15.17609 36.46998 38094 ft 464 kts 198°
2026-04-23 16:20 -15.23794 36.44941 38105 ft 463 kts 198°
2026-04-23 16:21 -15.29911 36.42905 38108 ft 464 kts 198°
2026-04-23 16:21 -15.36089 36.40848 38112 ft 463 kts 198°
2026-04-23 16:22 -15.42221 36.38806 38115 ft 464 kts 198°
2026-04-23 16:22 -15.48382 36.36752 38120 ft 464 kts 198°
2026-04-23 16:23 -15.54507 36.34709 38117 ft 463 kts 198°
2026-04-23 16:23 -15.60689 36.32645 38116 ft 463 kts 198°
2026-04-23 16:24 -15.66822 36.30597 38114 ft 462 kts 198°
2026-04-23 16:24 -15.72972 36.28541 38112 ft 464 kts 198°
2026-04-23 16:25 -15.79088 36.26496 38111 ft 464 kts 198°
2026-04-23 16:25 -15.85275 36.24426 38101 ft 464 kts 198°
2026-04-23 16:26 -15.91388 36.22378 38093 ft 464 kts 198°
2026-04-23 16:26 -15.97555 36.20312 38089 ft 464 kts 198°
2026-04-23 16:27 -16.03718 36.18217 38086 ft 462 kts 199°
2026-04-23 16:27 -16.09815 36.16127 38089 ft 464 kts 199°
2026-04-23 16:28 -16.15946 36.14026 38097 ft 464 kts 199°
2026-04-23 16:28 -16.22127 36.11906 38095 ft 464 kts 199°
2026-04-23 16:29 -16.28263 36.09802 38091 ft 464 kts 199°
2026-04-23 16:29 -16.34391 36.07698 38088 ft 465 kts 199°
2026-04-23 16:30 -16.40540 36.05587 38084 ft 464 kts 199°
2026-04-23 16:30 -16.46684 36.03476 38082 ft 464 kts 199°
2026-04-23 16:31 -16.52849 36.01355 38082 ft 464 kts 199°
2026-04-23 16:31 -16.59004 35.99237 38079 ft 465 kts 199°
2026-04-23 16:32 -16.65127 35.97129 38078 ft 465 kts 199°
2026-04-23 16:32 -16.71285 35.95007 38076 ft 466 kts 199°
2026-04-23 16:33 -16.77483 35.92870 38070 ft 467 kts 199°
2026-04-23 16:33 -16.83627 35.90751 38068 ft 465 kts 199°
2026-04-23 16:34 -16.89784 35.88625 38068 ft 464 kts 199°
2026-04-23 16:34 -16.95885 35.86517 38068 ft 466 kts 199°
2026-04-23 16:35 -17.02059 35.84382 38068 ft 466 kts 199°
2026-04-23 16:35 -17.08245 35.82242 38068 ft 468 kts 199°
2026-04-23 16:36 -17.14418 35.80105 38071 ft 467 kts 199°
2026-04-23 16:36 -17.20609 35.77960 38070 ft 467 kts 199°
2026-04-23 16:37 -17.26771 35.75824 38067 ft 466 kts 200°
2026-04-23 16:37 -17.32929 35.73687 38065 ft 465 kts 200°
2026-04-23 16:38 -17.39096 35.71546 38065 ft 466 kts 200°
2026-04-23 16:38 -17.45240 35.69411 38065 ft 466 kts 200°
2026-04-23 16:39 -17.51433 35.67258 38066 ft 467 kts 200°
2026-04-23 16:39 -17.57580 35.65118 38062 ft 467 kts 200°
2026-04-23 16:40 -17.63769 35.62960 38055 ft 467 kts 200°
2026-04-23 16:40 -17.69922 35.60813 38049 ft 468 kts 200°
2026-04-23 16:41 -17.76112 35.58653 38045 ft 467 kts 200°
2026-04-23 16:41 -17.82260 35.56506 38043 ft 466 kts 200°
2026-04-23 16:42 -17.88413 35.54355 38037 ft 466 kts 200°
2026-04-23 16:42 -17.94574 35.52199 38028 ft 466 kts 200°
2026-04-23 16:43 -18.00752 35.50036 38026 ft 466 kts 200°
2026-04-23 16:43 -18.06891 35.47885 38025 ft 467 kts 200°
2026-04-23 16:44 -18.13085 35.45713 38040 ft 466 kts 200°
2026-04-23 16:44 -18.19234 35.43556 38038 ft 466 kts 200°
2026-04-23 16:45 -18.25415 35.41385 38045 ft 466 kts 200°
2026-04-23 16:45 -18.31567 35.39224 38049 ft 466 kts 200°
2026-04-23 16:46 -18.37715 35.37062 38049 ft 466 kts 200°
2026-04-23 16:46 -18.43874 35.34894 38052 ft 466 kts 201°
2026-04-23 16:47 -18.50030 35.32726 38058 ft 466 kts 201°
2026-04-23 16:47 -18.56196 35.30553 38058 ft 467 kts 201°
2026-04-23 16:48 -18.62318 35.28394 38056 ft 465 kts 201°
2026-04-23 16:48 -18.68486 35.26222 38059 ft 467 kts 201°
2026-04-23 16:49 -18.74646 35.24051 38061 ft 466 kts 201°
2026-04-23 16:49 -18.80820 35.21873 38061 ft 465 kts 201°
2026-04-23 16:50 -18.86942 35.19712 38060 ft 467 kts 201°
2026-04-23 16:50 -18.93094 35.17538 38058 ft 467 kts 201°
2026-04-23 16:51 -18.99249 35.15362 38058 ft 465 kts 201°
2026-04-23 16:51 -19.05402 35.13184 38062 ft 467 kts 201°
2026-04-23 16:52 -19.11567 35.11001 38063 ft 464 kts 201°
2026-04-23 16:52 -19.17708 35.08824 38063 ft 467 kts 201°
2026-04-23 16:53 -19.23871 35.06638 38063 ft 465 kts 201°
2026-04-23 16:53 -19.29993 35.04464 38063 ft 466 kts 201°
2026-04-23 16:54 -19.36175 35.02268 38062 ft 465 kts 202°
2026-04-23 16:54 -19.42307 35.00088 38060 ft 466 kts 202°
2026-04-23 16:55 -19.48434 34.97907 38058 ft 465 kts 201°
2026-04-23 16:55 -19.54588 34.95716 38059 ft 467 kts 202°
2026-04-23 16:56 -19.60770 34.93512 38061 ft 467 kts 202°
2026-04-23 16:56 -19.66910 34.91322 38062 ft 467 kts 202°
2026-04-23 16:57 -19.73113 34.89108 38056 ft 466 kts 202°
2026-04-23 16:57 -19.78984 34.86350 38053 ft 461 kts 215°
2026-04-23 16:58 -19.83972 34.82142 38058 ft 457 kts 224°
2026-04-23 16:58 -19.88708 34.77698 38059 ft 455 kts 224°
2026-04-23 16:59 -19.93452 34.73235 38063 ft 456 kts 224°
2026-04-23 16:59 -19.98200 34.68761 38061 ft 456 kts 224°
2026-04-23 17:00 -20.02948 34.64283 38066 ft 456 kts 224°
2026-04-23 17:00 -20.07674 34.59821 38078 ft 456 kts 224°
2026-04-23 17:01 -20.12406 34.55351 38084 ft 454 kts 225°
2026-04-23 17:01 -20.17130 34.50882 38088 ft 455 kts 224°
2026-04-23 17:02 -20.21871 34.46394 38084 ft 455 kts 224°
2026-04-23 17:02 -20.26574 34.41939 38087 ft 456 kts 225°
2026-04-23 17:03 -20.31299 34.37459 38087 ft 453 kts 225°
2026-04-23 17:03 -20.36069 34.32931 38280 ft 460 kts 225°
2026-04-23 17:04 -20.38433 34.30687 39009 ft 453 kts 225°
2026-04-23 17:04 -20.40756 34.28481 39793 ft 446 kts 225°
2026-04-23 17:04 -20.43074 34.26279 40120 ft 445 kts 225°
2026-04-23 17:04 -20.45413 34.24054 40114 ft 447 kts 225°
2026-04-23 17:05 -20.50073 34.19620 40113 ft 446 kts 225°
2026-04-23 17:05 -20.54729 34.15185 40110 ft 447 kts 225°
2026-04-23 17:06 -20.59414 34.10721 40116 ft 446 kts 225°
2026-04-23 17:06 -20.64059 34.06289 40114 ft 446 kts 225°
2026-04-23 17:07 -20.68679 34.01879 40113 ft 445 kts 226°
2026-04-23 17:07 -20.73359 33.97520 40119 ft 446 kts 223°
2026-04-23 17:08 -20.78166 33.93356 40121 ft 445 kts 223°
2026-04-23 17:08 -20.82993 33.89158 40122 ft 446 kts 223°
2026-04-23 17:09 -20.87805 33.84960 40129 ft 446 kts 223°
2026-04-23 17:09 -20.92618 33.80750 40132 ft 446 kts 223°
2026-04-23 17:10 -20.97436 33.76530 40134 ft 446 kts 223°
2026-04-23 17:10 -21.02213 33.72340 40136 ft 446 kts 223°
2026-04-23 17:11 -21.07027 33.68114 40141 ft 445 kts 224°
2026-04-23 17:11 -21.11817 33.63906 40144 ft 445 kts 224°
2026-04-23 17:12 -21.16584 33.59713 40142 ft 445 kts 224°
2026-04-23 17:12 -21.21388 33.55484 40144 ft 443 kts 224°
2026-04-23 17:13 -21.26157 33.51282 40149 ft 446 kts 224°
2026-04-23 17:13 -21.30918 33.47084 40155 ft 444 kts 224°
2026-04-23 17:14 -21.35693 33.42868 40153 ft 442 kts 224°
2026-04-23 17:14 -21.40460 33.38657 40151 ft 445 kts 224°
2026-04-23 17:15 -21.45218 33.34450 40160 ft 443 kts 224°
2026-04-23 17:15 -21.49932 33.30278 40172 ft 446 kts 224°
2026-04-23 17:16 -21.54679 33.26075 40176 ft 443 kts 224°
2026-04-23 17:16 -21.59455 33.21840 40178 ft 444 kts 225°
2026-04-23 17:17 -21.64205 33.17626 40181 ft 444 kts 224°
2026-04-23 17:17 -21.68960 33.13404 40184 ft 443 kts 225°
2026-04-23 17:18 -21.76078 33.07075 40182 ft 443 kts 225°
2026-04-23 17:19 -21.80822 33.02820 40180 ft 443 kts 225°
2026-04-23 17:19 -21.85533 32.98552 40181 ft 443 kts 226°
2026-04-23 17:20 -21.90250 32.94274 40187 ft 444 kts 225°
2026-04-23 17:21 -21.99691 32.85709 40190 ft 443 kts 226°
2026-04-23 17:21 -22.06745 32.79333 40191 ft 443 kts 225°
2026-04-23 17:22 -22.13885 32.72999 40190 ft 444 kts 225°
2026-04-23 17:23 -22.21037 32.66640 40196 ft 444 kts 225°
2026-04-23 17:24 -22.28186 32.60273 40194 ft 444 kts 225°
2026-04-23 17:24 -22.35333 32.53896 40201 ft 446 kts 225°
2026-04-23 17:25 -22.42478 32.47514 40205 ft 444 kts 226°
2026-04-23 17:26 -22.51995 32.38998 40208 ft 444 kts 225°
2026-04-23 17:27 -22.59118 32.32614 40234 ft 444 kts 226°
2026-04-23 17:27 -22.63896 32.28326 40246 ft 445 kts 226°
2026-04-23 17:28 -22.68645 32.24061 40244 ft 445 kts 226°
2026-04-23 17:28 -22.73426 32.19764 40248 ft 444 kts 226°
2026-04-23 17:29 -22.78188 32.15478 40247 ft 444 kts 226°
2026-04-23 17:30 -22.85396 32.08984 40254 ft 445 kts 226°
2026-04-23 17:30 -22.92546 32.02534 40258 ft 445 kts 226°
2026-04-23 17:31 -22.97317 31.98225 40252 ft 444 kts 226°
2026-04-23 17:31 -23.02160 31.94006 40249 ft 448 kts 225°
2026-04-23 17:32 -23.06983 31.89821 40256 ft 447 kts 226°
2026-04-23 17:32 -23.11857 31.85582 40253 ft 447 kts 226°
2026-04-23 17:33 -23.16694 31.81368 40262 ft 446 kts 226°
2026-04-23 17:33 -23.21530 31.77149 40260 ft 447 kts 226°
2026-04-23 17:34 -23.26384 31.72910 40262 ft 446 kts 226°
2026-04-23 17:35 -23.33637 31.66567 40266 ft 445 kts 226°
2026-04-23 17:35 -23.40863 31.60238 40271 ft 446 kts 226°
2026-04-23 17:36 -23.45388 31.55699 40273 ft 435 kts 237°
2026-04-23 17:36 -23.48729 31.50308 40279 ft 427 kts 244°
2026-04-23 17:37 -23.51812 31.44803 40278 ft 427 kts 244°
2026-04-23 17:38 -23.56463 31.36478 40270 ft 427 kts 244°
2026-04-23 17:38 -23.59544 31.30954 40293 ft 426 kts 244°
2026-04-23 17:39 -23.62620 31.25430 40295 ft 427 kts 244°
2026-04-23 17:39 -23.65682 31.19928 40295 ft 426 kts 245°
2026-04-23 17:40 -23.68752 31.14404 40294 ft 426 kts 245°
2026-04-23 17:40 -23.71832 31.08855 40292 ft 426 kts 245°
2026-04-23 17:41 -23.75145 31.03511 40298 ft 432 kts 237°
2026-04-23 17:41 -23.80923 30.95925 40293 ft 432 kts 237°
2026-04-23 17:42 -23.86707 30.88330 40300 ft 432 kts 237°
2026-04-23 17:43 -23.90525 30.83313 40296 ft 431 kts 237°
2026-04-23 17:43 -23.94386 30.78231 40303 ft 432 kts 238°
2026-04-23 17:44 -23.98189 30.73223 40304 ft 431 kts 237°
2026-04-23 17:44 -24.03941 30.65635 40303 ft 433 kts 237°
2026-04-23 17:45 -24.09692 30.58041 40316 ft 431 kts 237°
2026-04-23 17:46 -24.15451 30.50420 40310 ft 434 kts 238°
2026-04-23 17:46 -24.19262 30.45377 40327 ft 430 kts 237°
2026-04-23 17:47 -24.23076 30.40317 40337 ft 434 kts 238°
2026-04-23 17:48 -24.28834 30.32671 40360 ft 436 kts 238°
2026-04-23 17:48 -24.32686 30.27555 40361 ft 430 kts 239°
2026-04-23 17:49 -24.36496 30.22484 40359 ft 434 kts 238°
2026-04-23 17:49 -24.40356 30.17338 40361 ft 438 kts 239°
2026-04-23 17:50 -24.44200 30.12216 40365 ft 435 kts 239°
2026-04-23 17:50 -24.50014 30.04454 40364 ft 435 kts 238°
2026-04-23 17:51 -24.53863 29.99307 40366 ft 438 kts 239°
2026-04-23 17:52 -24.59642 29.91572 40363 ft 437 kts 239°
2026-04-23 17:52 -24.65439 29.83800 40371 ft 436 kts 239°
2026-04-23 17:53 -24.71194 29.76072 40373 ft 438 kts 239°
2026-04-23 17:54 -24.75045 29.70898 40229 ft 434 kts 239°
2026-04-23 17:54 -24.76956 29.68327 39859 ft 434 kts 239°
2026-04-23 17:54 -24.80821 29.63115 38705 ft 445 kts 238°
2026-04-23 17:55 -24.84747 29.57819 37953 ft 449 kts 239°
2026-04-23 17:55 -24.86714 29.55166 37667 ft 450 kts 239°
2026-04-23 17:55 -24.88699 29.52486 37444 ft 450 kts 238°
2026-04-23 17:56 -24.90650 29.49853 37263 ft 449 kts 239°
2026-04-23 17:56 -24.94618 29.44487 36659 ft 453 kts 238°
2026-04-23 17:56 -24.96603 29.41802 36429 ft 454 kts 239°
2026-04-23 17:57 -24.98594 29.39105 36101 ft 457 kts 239°
2026-04-23 17:57 -25.00598 29.36390 35759 ft 460 kts 239°
2026-04-23 17:57 -25.04630 29.30927 35491 ft 459 kts 240°
2026-04-23 17:58 -25.06659 29.28174 35095 ft 460 kts 240°
2026-04-23 17:58 -25.08701 29.25473 34635 ft 464 kts 236°
2026-04-23 17:58 -25.11063 29.22988 33942 ft 472 kts 228°
2026-04-23 17:58 -25.13717 29.20904 33384 ft 470 kts 222°
2026-04-23 17:59 -25.16458 29.19013 32850 ft 457 kts 222°
2026-04-23 17:59 -25.19123 29.17188 32378 ft 444 kts 222°
2026-04-23 17:59 -25.21722 29.15403 31747 ft 440 kts 222°
2026-04-23 17:59 -25.24309 29.13624 31042 ft 435 kts 222°
2026-04-23 18:00 -25.26876 29.11858 30338 ft 431 kts 222°
2026-04-23 18:00 -25.29413 29.10109 29492 ft 430 kts 221°
2026-04-23 18:00 -25.31918 29.08385 29018 ft 420 kts 221°
2026-04-23 18:00 -25.34362 29.06705 28803 ft 403 kts 221°
2026-04-23 18:01 -25.36699 29.05101 28538 ft 388 kts 221°
2026-04-23 18:01 -25.38946 29.03554 27904 ft 383 kts 221°
2026-04-23 18:01 -25.41212 29.01986 27115 ft 386 kts 220°
2026-04-23 18:01 -25.43503 29.00397 26165 ft 396 kts 219°
2026-04-23 18:02 -25.45850 28.98770 25330 ft 397 kts 218°
2026-04-23 18:02 -25.48161 28.97171 24799 ft 390 kts 217°
2026-04-23 18:02 -25.50449 28.95589 24318 ft 382 kts 217°
2026-04-23 18:02 -25.52692 28.94036 23606 ft 379 kts 217°
2026-04-23 18:03 -25.54921 28.92491 22857 ft 378 kts 216°
2026-04-23 18:03 -25.57134 28.90957 22088 ft 376 kts 216°
2026-04-23 18:03 -25.59356 28.89415 21337 ft 375 kts 216°
2026-04-23 18:03 -25.61538 28.87901 20625 ft 372 kts 216°
2026-04-23 18:04 -25.63720 28.86387 19917 ft 370 kts 216°
2026-04-23 18:04 -25.65890 28.84879 19207 ft 368 kts 216°
2026-04-23 18:04 -25.68072 28.83363 18496 ft 366 kts 216°
2026-04-23 18:04 -25.70189 28.81891 17833 ft 363 kts 216°
2026-04-23 18:05 -25.72329 28.80404 17184 ft 360 kts 216°
2026-04-23 18:05 -25.74446 28.78930 16653 ft 362 kts 215°
2026-04-23 18:05 -25.76601 28.77429 16079 ft 364 kts 215°
2026-04-23 18:05 -25.78734 28.75943 15729 ft 360 kts 214°
2026-04-23 18:06 -25.80850 28.74470 15406 ft 354 kts 214°
2026-04-23 18:06 -25.82937 28.73015 14974 ft 353 kts 214°
2026-04-23 18:06 -25.85033 28.71553 14543 ft 352 kts 213°
2026-04-23 18:06 -25.87097 28.70113 14164 ft 349 kts 213°
2026-04-23 18:07 -25.89151 28.68679 13811 ft 344 kts 213°
2026-04-23 18:07 -25.91107 28.67315 13647 ft 326 kts 213°
2026-04-23 18:07 -25.92994 28.65998 13643 ft 310 kts 213°
2026-04-23 18:07 -25.94800 28.64737 13450 ft 303 kts 213°
2026-04-23 18:08 -25.95981 28.63911 13225 ft 303 kts 213°
2026-04-23 18:08 -25.98344 28.62258 12715 ft 304 kts 213°
2026-04-23 18:08 -26.00136 28.61004 12406 ft 301 kts 213°
2026-04-23 18:08 -26.01913 28.59761 12097 ft 299 kts 213°
2026-04-23 18:09 -26.03657 28.58540 11772 ft 297 kts 212°
2026-04-23 18:09 -26.05381 28.57334 11643 ft 285 kts 213°
2026-04-23 18:09 -26.07023 28.56184 11561 ft 274 kts 213°
2026-04-23 18:09 -26.08621 28.55064 11287 ft 273 kts 213°
2026-04-23 18:10 -26.10234 28.53933 10934 ft 273 kts 213°
2026-04-23 18:10 -26.11836 28.52810 10782 ft 265 kts 213°
2026-04-23 18:10 -26.13369 28.51735 10583 ft 260 kts 213°
2026-04-23 18:10 -26.14893 28.50666 10274 ft 259 kts 213°
2026-04-23 18:11 -26.16446 28.49577 9936 ft 259 kts 212°
2026-04-23 18:11 -26.17964 28.48512 9667 ft 257 kts 212°
2026-04-23 18:11 -26.19474 28.47452 9388 ft 255 kts 212°
2026-04-23 18:11 -26.20976 28.46397 9109 ft 253 kts 212°
2026-04-23 18:12 -26.22458 28.45358 8858 ft 250 kts 212°
2026-04-23 18:12 -26.23917 28.44333 8568 ft 249 kts 212°
2026-04-23 18:12 -26.25385 28.43302 8357 ft 244 kts 212°
2026-04-23 18:12 -26.26803 28.42307 8192 ft 237 kts 212°
2026-04-23 18:13 -26.28171 28.41342 8051 ft 231 kts 212°
2026-04-23 18:13 -26.29555 28.40359 8037 ft 234 kts 212°
2026-04-23 18:13 -26.30924 28.39388 8037 ft 234 kts 212°
2026-04-23 18:13 -26.32284 28.38368 8030 ft 234 kts 222°
2026-04-23 18:14 -26.33354 28.37036 8031 ft 236 kts 223°
2026-04-23 18:14 -26.34671 28.35952 8039 ft 235 kts 212°
2026-04-23 18:14 -26.36067 28.34956 8035 ft 234 kts 212°
2026-04-23 18:14 -26.37428 28.33992 8038 ft 234 kts 212°
2026-04-23 18:15 -26.38818 28.33007 8034 ft 233 kts 212°
2026-04-23 18:15 -26.40180 28.32042 8035 ft 234 kts 212°
2026-04-23 18:15 -26.41566 28.31063 8034 ft 235 kts 212°
2026-04-23 18:15 -26.42937 28.30076 8030 ft 236 kts 218°
2026-04-23 18:16 -26.44003 28.28689 8043 ft 236 kts 238°
2026-04-23 18:16 -26.44880 28.27135 8034 ft 236 kts 239°
2026-04-23 18:16 -26.45752 28.25574 8032 ft 240 kts 239°
2026-04-23 18:17 -26.46250 28.22088 8023 ft 234 kts 297°
2026-04-23 18:17 -26.45267 28.20704 8021 ft 225 kts 330°
2026-04-23 18:17 -26.43905 28.19901 8030 ft 223 kts 338°
2026-04-23 18:17 -26.42493 28.19182 8028 ft 221 kts 339°
2026-04-23 18:18 -26.41109 28.18484 8023 ft 213 kts 342°
2026-04-23 18:18 -26.39691 28.18108 8026 ft 207 kts
2026-04-23 18:18 -26.38280 28.18186 8029 ft 204 kts 12°
2026-04-23 18:18 -26.36886 28.18506 8025 ft 199 kts 16°
2026-04-23 18:19 -26.35590 28.18887 8020 ft 188 kts 18°
2026-04-23 18:19 -26.34330 28.19283 8027 ft 190 kts 18°
2026-04-23 18:19 -26.33053 28.19687 8029 ft 189 kts 18°
2026-04-23 18:19 -26.31775 28.20089 8031 ft 190 kts 18°
2026-04-23 18:20 -26.30501 28.20485 8029 ft 189 kts 18°
2026-04-23 18:20 -26.29238 28.20877 8022 ft 191 kts 18°
2026-04-23 18:20 -26.27939 28.21279 7775 ft 193 kts 18°
2026-04-23 18:20 -26.26651 28.21676 7526 ft 190 kts 18°
2026-04-23 18:21 -26.25392 28.22066 7281 ft 180 kts 18°
2026-04-23 18:21 -26.24198 28.22435 7061 ft 176 kts 18°
2026-04-23 18:21 -26.23057 28.22786 6852 ft 166 kts 18°
2026-04-23 18:21 -26.21933 28.23134 6637 ft 170 kts 18°
2026-04-23 18:22 -26.20796 28.23484 6409 ft 168 kts 18°
2026-04-23 18:22 -26.19662 28.23831 6200 ft 167 kts 18°
2026-04-23 18:22 -26.18546 28.24174 5980 ft 168 kts 19°
2026-04-23 18:22 -26.17417 28.24523 5759 ft 169 kts 18°
2026-04-23 18:23 -26.16662 28.24750 5604 ft 165 kts 19°
2026-04-23 18:23 -26.14560 28.25407 5539 ft 80 kts 15°
2026-04-23 18:24 -26.14020 28.25442 5517 ft 15 kts 352°
2026-04-23 18:24 -26.13903 28.25423 5511 ft 17 kts 352°
2026-04-23 18:24 -26.13847 28.25420 5509 ft 6 kts
2026-04-23 18:25 -26.13736 28.25454 5504 ft 10 kts 17°
2026-04-23 18:25 -26.13654 28.25481 5500 ft 13 kts 16°
2026-04-23 18:25 -26.13559 28.25510 5496 ft 14 kts 15°
2026-04-23 18:25 -26.13455 28.25523 5492 ft 15 kts 353°
2026-04-23 18:26 -26.13342 28.25499 5488 ft 17 kts 348°
2026-04-23 18:26 -26.13228 28.25473 5486 ft 16 kts 348°
2026-04-23 18:26 -26.13121 28.25444 5486 ft 14 kts 340°
2026-04-23 18:26 -26.13039 28.25400 5488 ft 12 kts 330°
2026-04-23 18:27 -26.12961 28.25332 5491 ft 16 kts 314°
2026-04-23 18:27 -26.12894 28.25232 5494 ft 15 kts 299°
2026-04-23 18:27 -26.12856 28.25132 5498 ft 13 kts 288°
2026-04-23 18:27 -26.12832 28.25040 5502 ft 11 kts 286°
2026-04-23 18:28 -26.12809 28.24952 5505 ft 20 kts 285°
2026-04-23 18:28 -26.12733 28.24649 5512 ft 32 kts 285°
2026-04-23 18:28 -26.12677 28.24425 5518 ft 23 kts 285°
2026-04-23 18:28 -26.12650 28.24320 5520 ft 11 kts 285°
2026-04-23 18:29 -26.12632 28.24245 5523 ft 8 kts 286°
2026-04-23 18:29 -26.12607 28.24153 5526 ft 18 kts 287°
2026-04-23 18:29 -26.12562 28.23980 5529 ft 24 kts 284°
2026-04-23 18:29 -26.12587 28.23872 5532 ft 13 kts 206°
2026-04-23 18:30 -26.12688 28.23834 5535 ft 16 kts 194°
2026-04-23 18:30 -26.12798 28.23799 5537 ft 14 kts 197°
2026-04-23 18:30 -26.12828 28.23774 5539 ft 1 kts 247°
2026-04-23 18:30 -26.12829 28.23770 5539 ft 0 kts 254°
2026-04-23 18:31 -26.12830 28.23756 5540 ft 3 kts 266°
2026-04-23 18:31 -26.12829 28.23708 5542 ft 9 kts 274°
2026-04-23 18:31 -26.12819 28.23599 5547 ft 16 kts 276°
2026-04-23 18:31 -26.12808 28.23489 5551 ft 12 kts 276°
2026-04-23 18:32 -26.12805 28.23411 5554 ft 6 kts 247°
2026-04-23 18:32 -26.12829 28.23392 5555 ft 3 kts 198°
2026-04-23 18:32 -26.12860 28.23380 5556 ft 5 kts 192°
2026-04-23 18:32 -26.12898 28.23381 5557 ft 0 kts 169°